Weather History for Rutland, VT

Change the Weather History Date:

Thursday, October 7, 2010

  Actual Average Record
Temperature  
Mean Temperature 54 °F -  
Max Temperature 60 °F - 86 °F (1963)
Min Temperature 48 °F - 26 °F (1984)
Degree Days  
Heating Degree Days 11    
Month to date heating degree days  
Since 1 July heating degree days  
Cooling Degree Days 0    
Month to date cooling degree days  
Year to date cooling degree days  
Growing Degree Days 4 (Base 50)    
Moisture  
Dew Point 45 °F    
Average Humidity 82    
Maximum Humidity 93    
Minimum Humidity 45    
Precipitation  
Precipitation 0.19 in - 2.12 in (1972)
Month to date precipitation  
Year to date precipitation  
Sea Level Pressure  
Sea Level Pressure 29.53 in    
Wind  
Wind Speed 3 mph (WNW)    
Max Wind Speed 18 mph    
Max Gust Speed 26 mph    
Visibility 8 miles    
Events      
T = Trace of Precipitation, MM = Missing Value Source: NWS Daily Summary

Daily Weather History Graph

Daily Weather History Graph

Search for Another Location

Airport:

Trip Planner

Search our weather history database for the weather conditions in past years. The results will help you decide how hot, cold, wet, or windy it might be!

Date:

Astronomy

Oct. 07, 2010 Rise Set
Actual Time 6:56 AM EDT 6:22 PM EDT
Civil Twilight 6:27 AM EDT 6:50 PM EDT
Nautical Twilight 5:54 AM EDT 7:23 PM EDT
Astronomical Twilight 5:21 AM EDT 7:57 PM EDT
Moon 6:45 AM EDT (10/7) 5:54 PM EDT (10/7)
Length of Visible Light 12h 23m
Length of Day
11h 26m
Waning Crescent, 0% of the Moon is Illuminated
Oct 7
Waning Crescent
Oct 7
New
Oct 14
First Quarter
Oct 22
Full
Oct 30
Last Quarter

Hourly Weather History & Observations

Time (EDT) Temp. Windchill Dew Point Humidity Pressure Visibility Wind Dir Wind Speed Gust Speed Precip Events Conditions
12:15 AM 48.2 °F - 46.4 °F 93% 29.61 in 3.0 mi Calm Calm - 0.01 in   Overcast
12:35 AM 48.2 °F - 46.4 °F 93% 29.61 in 3.0 mi Calm Calm - 0.02 in   Overcast
12:55 AM 48.2 °F - 46.4 °F 93% 29.61 in 3.0 mi Calm Calm - 0.04 in   Overcast
1:15 AM 48.2 °F - 46.4 °F 93% 29.60 in 5.0 mi Calm Calm - 0.04 in   Overcast
1:35 AM 48.2 °F - 46.4 °F 93% 29.59 in 4.0 mi Calm Calm - 0.06 in   Overcast
1:55 AM 48.2 °F - 46.4 °F 93% 29.59 in 5.0 mi Calm Calm - 0.07 in   Overcast
2:15 AM 48.2 °F - 46.4 °F 93% 29.58 in 4.0 mi Calm Calm - 0.01 in   Overcast
2:35 AM 48.2 °F - 46.4 °F 93% 29.57 in 4.0 mi Calm Calm - 0.02 in   Overcast
2:55 AM 48.2 °F - 46.4 °F 93% 29.56 in 5.0 mi Calm Calm - 0.02 in   Overcast
3:15 AM 48.2 °F - 46.4 °F 93% 29.55 in 8.0 mi Calm Calm - N/A   Overcast
3:35 AM 48.2 °F - 46.4 °F 93% 29.54 in 5.0 mi Calm Calm - N/A   Overcast
3:55 AM 48.2 °F - 46.4 °F 93% 29.53 in 8.0 mi Calm Calm - N/A   Overcast
4:15 AM 48.2 °F - 46.4 °F 93% 29.52 in 5.0 mi Calm Calm - N/A   Overcast
4:35 AM 48.2 °F - 46.4 °F 93% 29.51 in 10.0 mi SW 3.5 mph - N/A   Overcast
4:55 AM 48.2 °F - 46.4 °F 93% 29.51 in 3.0 mi South 3.5 mph - N/A   Overcast
5:15 AM 48.2 °F - 46.4 °F 93% 29.50 in 10.0 mi Calm Calm - N/A   Overcast
5:35 AM 48.2 °F - 46.4 °F 93% 29.50 in 10.0 mi Calm Calm - 0.01 in   Overcast
5:55 AM 48.2 °F - 46.4 °F 93% 29.49 in 10.0 mi Calm Calm - 0.01 in   Overcast
6:15 AM 48.2 °F - 46.4 °F 93% 29.48 in 10.0 mi Calm Calm - N/A   Overcast
6:35 AM 48.2 °F - 46.4 °F 93% 29.49 in 10.0 mi Calm Calm - N/A   Overcast
6:55 AM 48.2 °F - 46.4 °F 93% 29.48 in 10.0 mi Calm Calm - N/A   Overcast
7:15 AM 48.2 °F - 46.4 °F 93% 29.48 in 10.0 mi Calm Calm - N/A   Overcast
7:35 AM 48.2 °F - 46.4 °F 93% 29.48 in 3.0 mi Calm Calm - N/A   Overcast
7:55 AM 48.2 °F - 46.4 °F 93% 29.48 in 5.0 mi Calm Calm - N/A   Overcast
8:15 AM 48.2 °F - 46.4 °F 93% 29.48 in 5.0 mi NW 4.6 mph - N/A   Overcast
8:35 AM 48.2 °F - 46.4 °F 93% 29.48 in 9.0 mi Calm Calm - N/A   Overcast
8:55 AM 50.0 °F - 46.4 °F 87% 29.49 in 10.0 mi WNW 6.9 mph - N/A   Overcast
9:15 AM 50.0 °F - 46.4 °F 87% 29.49 in 10.0 mi WNW 6.9 mph - N/A   Overcast
9:35 AM 50.0 °F - 46.4 °F 87% 29.51 in 10.0 mi NW 6.9 mph - N/A   Overcast
9:55 AM 50.0 °F - 46.4 °F 87% 29.51 in 10.0 mi NW 9.2 mph - 0.04 in   Overcast
10:15 AM 50.0 °F - 46.4 °F 87% 29.52 in 10.0 mi WNW 5.8 mph - N/A   Overcast
10:35 AM 50.0 °F - 46.4 °F 87% 29.52 in 10.0 mi WNW 5.8 mph - 0.01 in   Overcast
10:55 AM 50.0 °F - 46.4 °F 87% 29.53 in 10.0 mi West 10.4 mph - 0.01 in   Overcast
11:15 AM 50.0 °F - 46.4 °F 87% 29.53 in 10.0 mi West 6.9 mph - N/A   Overcast
11:35 AM 51.8 °F - 46.4 °F 82% 29.52 in 10.0 mi WSW 4.6 mph - N/A   Overcast
11:55 AM 51.8 °F - 46.4 °F 82% 29.51 in 10.0 mi West 9.2 mph - N/A   Overcast
12:15 PM 51.8 °F - 46.4 °F 82% 29.52 in 10.0 mi West 10.4 mph - N/A   Overcast
12:35 PM 53.6 °F - 46.4 °F 77% 29.52 in 10.0 mi West 9.2 mph - N/A   Overcast
12:55 PM 53.6 °F - 46.4 °F 77% 29.52 in 10.0 mi WNW 15.0 mph 18.4 mph N/A   Overcast
1:15 PM 53.6 °F - 46.4 °F 77% 29.53 in 10.0 mi WNW 8.1 mph 21.9 mph N/A   Overcast
1:35 PM 55.4 °F - 44.6 °F 67% 29.53 in 10.0 mi WNW 17.3 mph 26.5 mph N/A   Overcast
1:55 PM 57.2 °F - 46.4 °F 67% 29.53 in 10.0 mi WNW 12.7 mph 21.9 mph N/A   Mostly Cloudy
2:15 PM 57.2 °F - 44.6 °F 63% 29.53 in 10.0 mi WNW 9.2 mph 21.9 mph N/A   Mostly Cloudy
2:35 PM 59.0 °F - 44.6 °F 59% 29.54 in 10.0 mi West 13.8 mph 24.2 mph N/A   Scattered Clouds
2:55 PM 59.0 °F - 44.6 °F 59% 29.54 in 10.0 mi WNW 10.4 mph - N/A   Scattered Clouds
3:15 PM 57.2 °F - 41.0 °F 55% 29.55 in 10.0 mi WNW 10.4 mph 19.6 mph N/A   Mostly Cloudy
3:35 PM 57.2 °F - 41.0 °F 55% 29.56 in 10.0 mi NW 9.2 mph 16.1 mph N/A   Mostly Cloudy
3:55 PM 57.2 °F - 39.2 °F 51% 29.57 in 10.0 mi NW 8.1 mph - N/A   Overcast
4:15 PM 59.0 °F - 39.2 °F 48% 29.57 in 10.0 mi NW 15.0 mph 24.2 mph N/A   Mostly Cloudy
4:35 PM 60.8 °F - 39.2 °F 45% 29.57 in 10.0 mi West 18.4 mph 23.0 mph N/A   Scattered Clouds
4:55 PM 59.0 °F - 39.2 °F 48% 29.57 in 10.0 mi West 12.7 mph 20.7 mph N/A   Partly Cloudy
5:15 PM 57.2 °F - 39.2 °F 51% 29.58 in 10.0 mi West 11.5 mph 20.7 mph N/A   Mostly Cloudy
5:35 PM 57.2 °F - 39.2 °F 51% 29.60 in 10.0 mi NW 15.0 mph 25.3 mph N/A   Overcast
5:55 PM 55.4 °F - 39.2 °F 54% 29.60 in 10.0 mi West 8.1 mph 16.1 mph N/A   Mostly Cloudy
6:15 PM 55.4 °F - 39.2 °F 54% 29.62 in 10.0 mi NW 8.1 mph - N/A   Overcast
6:35 PM 53.6 °F - 41.0 °F 62% 29.64 in 9.0 mi West 13.8 mph 25.3 mph N/A   Overcast
6:55 PM 51.8 °F - 42.8 °F 71% 29.64 in 9.0 mi West 11.5 mph 29.9 mph N/A   Overcast
7:15 PM 53.6 °F - 42.8 °F 67% 29.65 in 10.0 mi West 10.4 mph 23.0 mph N/A   Overcast
7:35 PM 53.6 °F - 41.0 °F 62% 29.66 in 10.0 mi West 10.4 mph - N/A   Overcast
7:55 PM 53.6 °F - 41.0 °F 62% 29.68 in 10.0 mi West 10.4 mph - N/A   Overcast
8:15 PM 53.6 °F - 41.0 °F 62% 29.69 in 10.0 mi WNW 8.1 mph - N/A   Overcast
8:35 PM 53.6 °F - 41.0 °F 62% 29.71 in 10.0 mi NNW 4.6 mph - N/A   Overcast
8:55 PM 51.8 °F - 41.0 °F 67% 29.71 in 10.0 mi West 6.9 mph - N/A   Scattered Clouds
9:15 PM 51.8 °F - 39.2 °F 62% 29.72 in 10.0 mi WNW 6.9 mph 16.1 mph N/A   Clear
9:35 PM 51.8 °F - 39.2 °F 62% 29.74 in 10.0 mi NNW 3.5 mph - N/A   Clear
9:55 PM 50.0 °F - 39.2 °F 66% 29.75 in 10.0 mi Calm Calm - N/A   Clear
10:15 PM 48.2 °F - 41.0 °F 76% 29.75 in 10.0 mi Calm Calm - N/A   Clear
10:35 PM 48.2 °F - 39.2 °F 71% 29.76 in 10.0 mi North 3.5 mph - N/A   Mostly Cloudy
10:55 PM 46.4 °F 45.2 °F 39.2 °F 76% 29.77 in 10.0 mi NE 3.5 mph - N/A   Mostly Cloudy
11:15 PM 48.2 °F - 41.0 °F 76% 29.77 in 10.0 mi East 3.5 mph - N/A   Partly Cloudy
11:35 PM 44.6 °F - 39.2 °F 81% 29.78 in 10.0 mi Calm Calm - N/A   Clear
11:55 PM 44.6 °F 42.2 °F 39.2 °F 81% 29.78 in 0.2 mi SE 4.6 mph - N/A   Unknown